KE8CZD Weather Reports


Display with metric or nautical units.
time (UTC)temp
F
wind
direction
speed
MPH
gust
MPH
rain 1hr
in
rain 24hr
in
rain mn
in
humidity
%
barometer
mb
20260508204244 64 292 0.0 2.0 0.00 0.01 0.01 26 1003.3
20260508203644 64 170 0.0 2.0 0.00 0.01 0.01 26 1003.5
20260508203044 65 293 1.0 7.0 0.00 0.01 0.01 26 1003.5
20260508202444 66 285 1.0 7.0 0.00 0.01 0.01 26 1003.6
20260508201844 66 292 1.0 7.0 0.00 0.01 0.01 26 1003.6
20260508201244 65 135 2.0 10.0 0.00 0.01 0.01 26 1003.7
20260508200644 66 304 2.0 10.0 0.00 0.01 0.01 26 1003.9
20260508200044 65 285 0.0 5.0 0.00 0.01 0.01 27 1003.9
20260508195444 66 283 2.0 5.0 0.00 0.01 0.01 24 1003.9
20260508194844 67 44 0.0 5.0 0.00 0.01 0.01 24 1003.9
20260508194244 66 186 1.0 5.0 0.00 0.01 0.01 24 1004.1
20260508193644 66 180 0.0 5.0 0.00 0.01 0.01 24 1004.1
20260508193044 66 184 0.0 2.0 0.00 0.01 0.01 24 1004.4
20260508192444 66 339 0.0 5.0 0.00 0.01 0.01 23 1004.5
20260508191844 66 286 0.0 5.0 0.00 0.01 0.01 24 1004.6
20260508191244 64 275 2.0 7.0 0.00 0.01 0.01 23 1004.8
20260508190644 65 164 3.0 10.0 0.00 0.01 0.01 23 1004.7
20260508190044 65 306 0.0 5.0 0.00 0.01 0.01 23 1004.6
20260508185444 65 317 1.0 5.0 0.00 0.01 0.01 24 1004.9
20260508184844 65 153 2.0 10.0 0.00 0.01 0.01 25 1005.0
20260508184244 64 119 1.0 7.0 0.00 0.01 0.01 26 1005.0
20260508183645 64 250 0.0 5.0 0.00 0.01 0.01 25 1005.1
20260508183044 64 280 1.0 5.0 0.00 0.01 0.01 26 1005.3
20260508182444 63 243 1.0 5.0 0.00 0.01 0.01 25 1005.3
20260508181844 63 277 1.0 7.0 0.00 0.01 0.01 25 1005.4
20260508181244 63 259 1.0 7.0 0.00 0.01 0.01 25 1005.5
20260508180644 63 244 1.0 7.0 0.00 0.01 0.01 25 1005.7
20260508180044 62 243 1.0 7.0 0.00 0.01 0.01 27 1005.7
20260508174844 62 350 0.0 2.0 0.00 0.01 0.01 28 1006.0
20260508174244 61 188 1.0 7.0 0.00 0.01 0.01 28 1006.2
20260508173644 60 212 1.0 5.0 0.00 0.01 0.01 28 1006.3
20260508173044 61 301 1.0 7.0 0.00 0.01 0.01 27 1006.6
20260508172444 60 280 0.0 5.0 0.00 0.01 0.01 29
20260508171844 60 332 0.0 7.0 0.00 0.01 0.01 30 1006.8
20260508171244 60 10 0.0 2.0 0.00 0.01 0.01 30 1006.7
20260508170645 61 200 2.0 7.0 0.00 0.01 0.01 29 1006.9
20260508170044 60 296 0.0 5.0 0.00 0.01 0.01 30
20260508165444 60 259 0.0 2.0 0.00 0.01 0.01 31 1007.0
20260508164844 59 275 1.0 7.0 0.00 0.01 0.01 31 1007.2
20260508164244 59 198 1.0 5.0 0.00 0.01 0.01 31 1007.4
20260508163644 58 232 1.0 5.0 0.00 0.01 0.01 31
20260508163044 58 292 1.0 7.0 0.00 0.01 0.01 32 1007.4
20260508162444 57 10 1.0 5.0 0.00 0.01 0.01 32
20260508161844 58 275 1.0 5.0 0.00 0.01 0.01 32 1007.6
20260508161244 58 192 1.0 7.0 0.00 0.01 0.01 32 1007.6
20260508160644 57 190 1.0 7.0 0.00 0.01 0.01 33 1007.7
20260508160044 57 284 1.0 5.0 0.00 0.01 0.01 35 1007.7
20260508155444 56 258 1.0 5.0 0.00 0.01 0.01 37 1007.8
20260508154844 56 295 1.0 5.0 0.00 0.01 0.01 39 1007.9
20260508154243 56 327 0.0 5.0 0.00 0.01 0.01 40 1008.0
20260508153644 55 347 0.0 2.0 0.00 0.01 0.01 38
20260508153044 55 270 0.0 2.0 0.00 0.01 0.01 38 1008.0
20260508152444 54 255 0.0 2.0 0.00 0.01 0.01 39 1008.2
20260508151844 53 284 1.0 7.0 0.00 0.01 0.01 40 1008.3
20260508151244 54 16 1.0 5.0 0.00 0.01 0.01 42 1008.2
20260508150644 53 281 0.0 5.0 0.00 0.01 0.01 42 1008.2
20260508150044 53 193 0.0 5.0 0.00 0.01 0.01 42 1008.3
20260508145444 53 61 0.0 2.0 0.00 0.01 0.01 40 1008.5
20260508144844 53 260 0.0 5.0 0.00 0.01 0.01 42 1008.6
20260508144244 52 274 0.0 5.0 0.00 0.01 0.01 43 1008.5
20260508143644 52 261 0.0 2.0 0.00 0.01 0.01 44 1008.6
20260508143044 52 154 1.0 5.0 0.00 0.01 0.01 43 1008.6
20260508142444 53 219 0.0 2.0 0.00 0.01 0.01 47 1008.6
20260508141844 53 239 0.0 2.0 0.00 0.01 0.01 49 1008.7
20260508141243 53 0 0.0 0.0 0.00 0.01 0.01 51 1008.6
20260508140644 53 146 0.0 2.0 0.00 0.01 0.01 52 1008.8
20260508140043 53 187 0.0 5.0 0.00 0.01 0.01 53 1008.8
20260508135444 52 119 0.0 2.0 0.00 0.01 0.01 61 1008.9
20260508134844 50 0 0.0 0.0 0.00 0.01 0.01 64 1009.1
20260508134245 49 178 0.0 2.0 0.00 0.01 0.01 67 1009.2
20260508133644 49 182 0.0 5.0 0.00 0.01 0.01 70 1009.3
20260508133043 49 0 0.0 0.0 0.00 0.01 0.01 73 1009.2
20260508132444 47 212 0.0 2.0 0.00 0.01 0.01 79 1009.3
20260508131843 47 0 0.0 0.0 0.00 0.01 0.01 83 1009.4
20260508131243 46 202 0.0 5.0 0.00 0.01 0.01 87 1009.5
20260508130644 46 197 0.0 2.0 0.00 0.01 0.01 92 1009.3
20260508130043 46 0 0.0 0.0 0.00 0.01 0.01 95 1009.6
20260508125444 45 0 0.0 0.0 0.00 0.01 0.01 97 1009.4
20260508124844 44 0 0.0 0.0 0.00 0.01 0.01 97 1009.4
20260508124244 44 0 0.0 0.0 0.00 0.01 0.01 98 1009.4
20260508123644 43 0 0.0 0.0 0.00 0.01 0.01 98 1009.3
20260508123044 43 0 0.0 0.0 0.00 0.01 0.01 98 1009.4
20260508122444 43 0 0.0 0.0 0.00 0.01 0.01 98 1009.4
20260508121843 42 0 0.0 0.0 0.00 0.01 0.01 98 1009.3
20260508121244 42 0 0.0 0.0 0.00 0.01 0.01 98 1009.4
20260508120643 42 0 0.0 0.0 0.00 0.01 0.01 99 1009.5
20260508120046 41 0 0.0 0.0 0.00 0.01 0.01 99 1009.3
20260508115444 41 0 0.0 0.0 0.00 0.01 0.01 99 1009.3
20260508114843 41 0 0.0 0.0 0.00 0.01 0.01 99 1009.1
20260508114244 40 0 0.0 0.0 0.00 0.01 0.01 99 1009.1
20260508113643 40 0 0.0 0.0 0.00 0.01 0.01 99 1009.1
20260508113043 40 0 0.0 0.0 0.00 0.01 0.01 99
20260508112443 39 0 0.0 0.0 0.00 0.01 0.01 99 1009.1
20260508111843 38 0 0.0 0.0 0.00 0.01 0.01 99 1009.0
20260508111243 38 0 0.0 0.0 0.00 0.01 0.01 99 1009.1
20260508110646 38 0 0.0 0.0 0.00 0.01 0.01 99 1009.1
20260508110043 38 0 0.0 0.0 0.00 0.01 0.01 99
20260508105444 38 0 0.0 0.0 0.00 0.01 0.01 99 1009.0
20260508104843 37 0 0.0 0.0 0.00 0.01 0.01 99 1009.0
20260508104244 37 0 0.0 0.0 0.00 0.01 0.01 99 1009.1
20260508103644 38 0 0.0 0.0 0.00 0.01 0.01 99 1009.0
20260508103044 38 0 0.0 0.0 0.00 0.01 0.01 99 1009.0
20260508102443 38 0 0.0 0.0 0.00 0.01 0.01 99 1009.0
20260508101843 38 0 0.0 0.0 0.00 0.01 0.01 99 1008.9
20260508101243 38 0 0.0 0.0 0.00 0.01 0.01 99 1009.1
20260508100643 38 0 0.0 0.0 0.00 0.01 0.01 99 1009.0
20260508100043 38 0 0.0 0.0 0.00 0.01 0.01 99
20260508095443 38 0 0.0 0.0 0.00 0.01 0.01 99 1008.9
20260508094843 39 0 0.0 0.0 0.00 0.01 0.01 99 1008.8
20260508094243 39 0 0.0 0.0 0.00 0.01 0.01 99 1008.9
20260508093643 39 0 0.0 0.0 0.00 0.01 0.01 99 1008.9
20260508093043 39 0 0.0 0.0 0.00 0.01 0.01 99 1008.9
20260508092444 39 0 0.0 0.0 0.00 0.01 0.01 99 1009.0
20260508091843 39 0 0.0 0.0 0.00 0.01 0.01 99 1008.9
20260508091244 40 0 0.0 0.0 0.00 0.01 0.01 99 1008.9
20260508090644 40 0 0.0 0.0 0.00 0.01 0.01 99 1009.0
20260508090044 40 0 0.0 0.0 0.00 0.01 0.01 99
20260508085445 41 0 0.0 0.0 0.00 0.01 0.01 99 1009.0
20260508084844 41 0 0.0 0.0 0.00 0.01 0.01 99 1008.9
20260508084244 41 0 0.0 0.0 0.00 0.01 0.01 99 1008.8
20260508083645 41 0 0.0 0.0 0.00 0.01 0.01 99 1008.8
20260508083046 41 270 0.0 2.0 0.00 0.01 0.01 99 1008.8
20260508082446 41 0 0.0 0.0 0.00 0.01 0.01 99 1008.8
20260508081844 41 0 0.0 0.0 0.00 0.01 0.01 99 1008.8
20260508081245 41 0 0.0 0.0 0.00 0.01 0.01 99 1008.9
20260508080644 41 0 0.0 0.0 0.00 0.01 0.01 99 1009.0
20260508080044 41 0 0.0 0.0 0.00 0.01 0.01 99 1009.0
20260508075444 41 0 0.0 0.0 0.00 0.01 0.01 99 1009.0
20260508074844 41 0 0.0 0.0 0.00 0.01 0.01 99 1008.9
20260508074244 41 0 0.0 0.0 0.00 0.01 0.01 99 1008.9
20260508073644 41 0 0.0 0.0 0.00 0.01 0.01 99 1009.0
20260508073045 41 0 0.0 0.0 0.00 0.01 0.01 99 1009.0
20260508072444 41 0 0.0 0.0 0.00 0.01 0.01 99 1008.8
20260508071844 41 0 0.0 0.0 0.00 0.01 0.01 99 1008.9
20260508071245 41 0 0.0 0.0 0.00 0.01 0.01 99 1008.9
20260508070644 41 0 0.0 0.0 0.00 0.01 0.01 99 1009.0
20260508070044 41 0 0.0 0.0 0.00 0.01 0.01 99 1009.0
20260508065444 41 0 0.0 0.0 0.00 0.01 0.01 99 1009.1
20260508064844 41 0 0.0 0.0 0.00 0.01 0.01 99 1009.1
20260508064244 41 0 0.0 0.0 0.00 0.01 0.01 99 1009.1
20260508063645 41 0 0.0 0.0 0.00 0.01 0.01 99 1009.0
20260508063044 41 0 0.0 0.0 0.00 0.01 0.01 99 1009.1
20260508062445 41 0 0.0 0.0 0.00 0.01 0.01 99 1009.1
20260508061844 41 0 0.0 0.0 0.00 0.01 0.01 99 1009.1
20260508061244 42 0 0.0 0.0 0.00 0.01 0.01 99 1009.0
20260508060644 42 0 0.0 0.0 0.00 0.01 0.01 99 1009.3
20260508060044 42 0 0.0 0.0 0.00 0.01 0.01 99 1009.2
20260508055444 42 0 0.0 0.0 0.00 0.01 0.01 99 1009.2
20260508054845 42 0 0.0 0.0 0.00 0.01 0.01 99 1009.2
20260508054244 42 0 0.0 0.0 0.00 0.01 0.01 99 1009.3
20260508053645 42 0 0.0 0.0 0.00 0.01 0.01 99 1009.3
20260508053044 42 0 0.0 0.0 0.00 0.01 0.01 99
20260508052444 42 0 0.0 0.0 0.00 0.01 0.01 98 1009.4
20260508051846 42 0 0.0 0.0 0.00 0.01 0.01 97 1009.2
20260508051244 42 0 0.0 0.0 0.01 0.01 0.01 97 1009.2
20260508050644 42 0 0.0 0.0 0.01 0.01 0.01 95 1009.2
20260508050044 43 0 0.0 0.0 0.01 0.01 0.01 95 1009.1
20260508045444 43 0 0.0 0.0 0.01 0.01 0.01 93 1009.1
20260508044844 43 0 0.0 0.0 0.01 0.01 0.01 92 1009.3
20260508044245 43 0 0.0 0.0 0.01 0.01 0.01 91 1009.3
20260508043645 43 0 0.0 0.0 0.01 0.01 0.01 90 1009.3
20260508043044 43 0 0.0 0.0 0.01 0.01 0.01 89 1009.4
20260508042444 44 0 0.0 0.0 0.01 0.01 0.01 85 1009.4
20260508041844 44 0 0.0 0.0 0.00 0.00 0.00 82 1009.4
20260508041244 44 0 0.0 0.0 0.00 0.00 0.00 79 1009.7
20260508040644 45 0 0.0 0.0 0.00 0.00 0.00 77 1009.8
20260508040044 45 270 0.0 2.0 0.00 0.00 0.00 72 1009.7
20260508035444 47 331 0.0 7.0 0.00 0.00 0.00 60 1009.4
20260508034844 48 0 0.0 0.0 0.00 0.00 0.00 56 1009.2
20260508034245 48 0 0.0 0.0 0.00 0.00 0.00 54 1009.1
20260508033644 48 0 0.0 0.0 0.00 0.00 0.00 54 1009.0
20260508033044 48 0 0.0 0.0 0.00 0.00 0.00 54 1008.7
20260508032445 48 0 0.0 0.0 0.00 0.00 0.00 53 1008.8
20260508031844 48 0 0.0 0.0 0.00 0.00 0.00 52 1008.8
20260508031244 48 0 0.0 0.0 0.00 0.00 0.00 52 1008.9
20260508030644 48 0 0.0 0.0 0.00 0.00 0.00 52 1008.9
20260508030044 48 0 0.0 0.0 0.00 0.00 0.00 52 1009.0
20260508025444 49 0 0.0 0.0 0.00 0.00 0.00 51 1009.1
20260508024844 49 0 0.0 0.0 0.00 0.00 0.00 51 1009.0
20260508024245 49 0 0.0 0.0 0.00 0.00 0.00 51 1009.0
20260508023644 49 0 0.0 0.0 0.00 0.00 0.00 50 1009.1
20260508023046 49 0 0.0 0.0 0.00 0.00 0.00 49 1009.1
20260508022444 50 300 0.0 2.0 0.00 0.00 0.00 49 1008.8
20260508021844 49 0 0.0 0.0 0.00 0.00 0.00 50 1008.9
20260508021244 50 0 0.0 0.0 0.00 0.00 0.00 49 1008.7
20260508020644 49 268 0.0 2.0 0.00 0.00 0.00 50 1008.8
20260508020044 49 0 0.0 0.0 0.00 0.00 0.00 51 1008.8
20260508015444 49 270 0.0 2.0 0.00 0.00 0.00 50 1008.7
20260508014844 49 0 0.0 0.0 0.00 0.00 0.00 50 1008.8
20260508014244 50 0 0.0 0.0 0.00 0.00 0.00 50 1008.8
20260508013644 50 0 0.0 0.0 0.00 0.00 0.00 48 1008.7
20260508013044 50 0 0.0 0.0 0.00 0.00 0.00 48 1008.5
20260508012444 50 0 0.0 0.0 0.00 0.00 0.00 48 1008.5
20260508011844 50 0 0.0 0.0 0.00 0.00 0.00 44 1008.4
20260508011244 50 0 0.0 0.0 0.00 0.00 0.00 43 1008.3
20260508010644 50 0 0.0 0.0 0.00 0.00 0.00 42 1008.4
20260508010044 50 264 0.0 2.0 0.00 0.00 0.00 42 1008.4
20260508005444 50 294 0.0 2.0 0.00 0.00 0.00 42 1008.2
20260508004844 50 252 0.0 5.0 0.00 0.00 0.00 41 1008.3
20260508004244 51 238 2.0 10.0 0.00 0.00 0.00 38 1008.2
20260508003645 52 201 1.0 10.0 0.00 0.00 0.00 35 1008.2
20260508003044 52 268 0.0 5.0 0.00 0.00 0.00 34 1008.1
20260508002444 52 272 0.0 5.0 0.00 0.00 0.00 34 1007.8
20260508001844 52 240 0.0 5.0 0.00 0.00 0.00 34 1007.8
20260508001245 52 303 0.0 2.0 0.00 0.00 0.00 33 1007.7
20260508000644 52 270 0.0 5.0 0.00 0.00 0.00 33 1007.8
20260508000044 52 309 0.0 5.0 0.00 0.00 0.00 33 1007.8
20260507235444 52 278 0.0 5.0 0.00 0.00 0.00 33 1007.7
20260507234844 53 277 1.0 5.0 0.00 0.00 0.00 33 1007.7
20260507234244 53 292 0.0 5.0 0.00 0.00 0.00 31 1007.7
20260507233644 53 267 1.0 7.0 0.00 0.00 0.00 31 1007.8
20260507233044 53 307 0.0 5.0 0.00 0.00 0.00 31 1007.8
20260507232444 53 293 0.0 2.0 0.00 0.00 0.00 31 1007.9
20260507231844 53 291 1.0 5.0 0.00 0.00 0.00 31 1007.9
20260507231244 53 298 0.0 2.0 0.00 0.00 0.00 31 1007.8
20260507230644 54 279 0.0 2.0 0.00 0.00 0.00 30 1007.7
20260507230044 55 271 2.0 10.0 0.00 0.00 0.00 30 1007.7
20260507225444 54 295 0.0 5.0 0.00 0.00 0.00 29 1007.7
20260507224844 54 296 3.0 10.0 0.00 0.00 0.00 29 1007.7
20260507224244 55 288 2.0 7.0 0.00 0.00 0.00 32 1007.8
20260507223818 56 280 1.0 7.0 0.00 0.00 0.00 32 1007.7
20260507223644 56 280 1.0 7.0 0.00 0.00 0.00 32 1007.7
20260507223044 56 278 1.0 5.0 0.00 0.00 0.00 32 1007.7
20260507222444 54 276 2.0 10.0 0.00 0.00 0.00 30 1007.9
20260507221844 53 289 1.0 7.0 0.00 0.00 0.00 30 1008.1
20260507220644 54 270 3.0 7.0 0.00 0.00 0.00 30 1008.0
20260507220044 53 282 1.0 7.0 0.00 0.00 0.00 29 1008.0
20260507214844 54 275 3.0 10.0 0.00 0.00 0.00 29 1007.9
20260507214244 55 276 4.0 12.0 0.00 0.00 0.00 29 1007.8
20260507213644 56 278 2.0 10.0 0.00 0.00 0.00 32 1007.6
20260507213044 56 308 1.0 7.0 0.00 0.00 0.00 32 1007.6
20260507212444 55 277 0.0 7.0 0.00 0.00 0.00 31 1007.8
20260507211844 56 283 1.0 7.0 0.00 0.00 0.00 31 1007.7
20260507211244 55 269 2.0 10.0 0.00 0.00 0.00 31 1007.8
20260507210644 55 287 3.0 10.0 0.00 0.00 0.00 31 1007.8
20260507210044 55 275 2.0 10.0 0.00 0.00 0.00 31 1007.7
20260507205444 56 290 1.0 7.0 0.00 0.00 0.00 32 1007.6
20260507204844 55 292 1.0 5.0 0.00 0.00 0.00 30 1007.9